Volver al catálogo

STARLINK-5540

ActivoComunicacionesSSO
NORAD 56340·PAYLOAD·🇺🇸 United States

Lanzado Apr 27, 2023 desde Vandenberg Space Force Base

Loading…

Próximos Pases (próximas 24 horas)

TLE

ActualizadoSource: CelesTrak SupGP

Época: Sep 14, 2026, 20:59 UTC

1 56340C 23058Z   26257.87479167  .00064127  00000+0  19894-2 0  2576
2 56340  97.2849 254.7683 0001876  95.1731  27.0850 15.33426895    11

Sigue STARLINK-5540 en tiempo real con AllMySat

Download on the App Store